299  
NZUS99 KSGF 031507  
HRRSGF  
 
HOURLY WEATHER  
NATIONAL WEATHER SERVICE SPRINGFIELD MO  
1000 AM CDT MON AUG 03 2020  
   
.....SGF CWA...
 
 
 
CITY SKY/WX TMP DP RH WIND PRES REMARKS  
SPRINGFIELD PTSUNNY 71 65 81 NE8 30.07R  
JOPLIN MOSUNNY 73 64 73 NE9 30.10R  
WEST PLAINS CLOUDY 71 66 84 N6 30.05R  
ROLLA CLOUDY 67 65 93 NE5 30.05S  
OSAGE BEACH CLOUDY 67 65 93 N3 30.07R  
BRANSON PTSUNNY 72 64 78 N8 30.07R  
   
.....SURROUNDING SGF CWA...
 
 
 
CITY SKY/WX TMP DP RH WIND PRES REMARKS  
CHANUTE SUNNY 75 59 57 NE9 30.13R  
PARSONS SUNNY 74 59 59 N7 30.13R  
COFFEYVILLE SUNNY 75 61 61 N9 30.10R  
EMPORIA SUNNY 71 59 65 NE8 30.16R  
GROVE OK MOSUNNY 70 63 78 NE3 30.09R  
ROGERS AR PTSUNNY 69 63 81 NW6 30.09S  
SILOAM SPRINGS PTSUNNY 70 65 84 N12 30.10R  
HARRISON AR PTSUNNY 72 65 78 VRB5 30.06S  
NEAR YELLVILLE MOSUNNY 74 68 81 E5 30.04S  
   
.....KANSAS AND MISSOURI...
 
 
 
CITY SKY/WX TMP DP RH WIND PRES REMARKS  
KANSAS CTY INT MOSUNNY 69 61 75 N8 30.14R  
DOWNTOWN KC SUNNY 70 57 63 N9 30.12R  
COLUMBIA CLOUDY 67 63 87 N9 30.07R  
SEDALIA CLOUDY 70 63 78 N8 30.09R  
ST JOSEPH SUNNY 68 59 73 N10 30.15R  
ST LOUIS MOSUNNY 75 66 73 VRB3 30.02R  
SPIRIT OF STL PTSUNNY 73 66 78 N6 30.01S  
KIRKSVILLE PTSUNNY 69 61 75 NE7 30.11R  
WICHITA MOSUNNY 75 56 51 NE8 30.16R  
TOPEKA SUNNY 70 58 65 VRB6 30.15R  
OLATHE MOSUNNY 70 58 65 N10 30.13R  
   
.....TENNESSEE...
 
 
 
CITY SKY/WX TMP DP RH WIND PRES REMARKS  
MEMPHIS MOSUNNY 84 69 60 NW3 29.99S  
NASHVILLE MOSUNNY 82 65 56 VRB5 30.03S  
   
.....ARKANSAS....
 
 
 
CITY SKY/WX TMP DP RH WIND PRES REMARKS  
FAYETTEVILLE SUNNY 72 65 78 CALM 30.07R  
FT SMITH SUNNY 77 63 61 W6 30.03S  
LITTLE ROCK MOSUNNY 78 71 79 NW5 30.00S  
   
.....OKLAHOMA....
 
 
 
CITY SKY/WX TMP DP RH WIND PRES REMARKS  
TULSA MOSUNNY 76 66 71 N8 30.08S  
PONCA CITY SUNNY 74 60 61 NE9 30.13R  
MCALESTER MOSUNNY 74 62 66 NW5 30.08R  
OKLAHOMA CITY MOSUNNY 76 62 62 N7 30.12R  
   
.....IOWA.........
 
 
 
CITY SKY/WX TMP DP RH WIND PRES REMARKS  
DES MOINES MOSUNNY 66 50 56 NE13 30.14S  
QUAD CITIES CLOUDY 64 56 75 N10 30.08R  
   
.....ILLINOIS.....
 
 
 
CITY SKY/WX TMP DP RH WIND PRES REMARKS  
QUINCY CLOUDY 64 61 90 N12 30.06S  
CHICAGO CLOUDY 67 60 78 NW8 30.03R  
 
 
 
CLICK HERE TO GO TO PREVIOUS BULLETINS.

The Nexlab MO Page
The Nexlab KS Page Main Text Page